www.pogodaiklimat.ru

Погода и климат >> Архив погоды >> Антарктида >> Mirnyj


ПОГОДА в Mirnyj

  • Прогноз погоды в Mirnyj
  • Монитор погоды в Mirnyj
  • Климат города

АРХИВ ПОГОДЫ в Mirnyj

Время (UTC), дата Ветер
(напр.,м/с)
 
Видим.   Явления Облачность Т
(С)
Тd
(С)
f
(%)
Тe
(С)
Тes
(С)
Комфортность P
(гПа)
Po
(гПа)
Тmin
(С)
Tmax
(С)
R
(мм)
R24
(мм)
S
(см)
18 9.10 Ю 6
{6}
20 км позёмок {метель} ясно -22.0 -27.2 63 -33 -33 опасность
обморожения
985.6 979.8
00 10.10 ЮВ 7
{7}
20 км позёмок {метель} ясно -22.0 -27.5 61 -34 -34 опасность
обморожения
987.6 981.8 -22.9 40
06 10.10 ЮВ 5
{6}
20 км позёмок {метель} ясно -16.2 -22.2 60 -25 -22 987.2 981.5
12 10.10 ЮВ 4
{5}
20 км позёмок {метель} ясно -18.0 -24.5 57 -27 -26 985.4 979.7 -15.7
18 10.10 Ю 6
{6}
20 км позёмок {метель} ясно -20.7 -26.5 60 -32 -32 опасность
обморожения
984.1 978.3
00 11.10 Ю 9
{10}
4000 м метель 4/0
[Cs]
-23.0 -26.9 70 -37 -37 опасность
обморожения
982.2 976.4 -23.0 40
06 11.10 З 1 20 км {метель} 4/0
[Cs]
-18.7 -24.0 63 -22 -15 984.2 978.5
12 11.10 Ю 1 20 км ясно -18.7 -25.7 54 -22 -21 985.1 979.4 -16.9
18 11.10 ЮВ 7
{8}
20 км сильный позёмок {метель} ясно -22.6 -27.5 64 -35 -35 опасность
обморожения
986.4 980.6
00 12.10 ЮВ 7
{9}
10 км сильный позёмок {метель} ясно -22.6 -28.0 61 -35 -35 опасность
обморожения
989.0 983.2 -24.4 40
06 12.10 СВ 2 20 км {метель} ясно -17.6 -26.0 48 -22 -15 988.9 983.2
12 12.10 В 3 20 км ясно -15.6 -22.8 54 -22 -22 986.8 981.1 -15.4
18 12.10 ЮВ 7
{8}
20 км позёмок {метель} 3/0
[Ci fib]
-16.8 -22.9 59 -27 -27 983.1 977.4
00 13.10 ЮВ 10
{11}
4000 м метель 10/0
[Ac As]
-14.0 -17.8 73 -26 -26 976.1 970.5 -18.1 40
06 13.10 ЮВ 10
{10}
2000 м в посл. час снег {метель} 10/6 300 м
[Frnb As op]
-7.3 -10.0 81 -17 -17 969.5 964.1
12 13.10 ЮВ 12
{13}
1000 м сильная метель 10/5 300 м
[Sc Ac As]
-6.9 -10.1 78 -18 -18 965.2 959.8 -5.7 3
18 13.10 ЮВ 12
{14}
1000 м сильная метель 10/10 600 м
[Sc]
-8.3 -10.7 83 -20 -20 962.9 957.5
00 14.10 ЮВ 12
{12}
2000 м метель 10/10 600 м
[Sc]
-8.0 -10.7 81 -19 -19 961.8 956.4 -8.6 41
06 14.10 ЮВ 13
{14}
2000 м сильная метель {снег} 10/9 200 м
[Frnb As op]
-6.2 -9.0 81 -17 -17 962.3 957.0
12 14.10 В 5
{6}
1000 м сильный снег {метель} 10/10 200 м
[Frnb Ns]
-7.8 -9.0 91 -16 -16 972.0 966.6 -5.0 5
18 14.10 ЮВ 7
{8}
4000 м слабый снег {метель} 10/10 300 м
[Frnb Ns]
-8.0 -9.6 88 -17 -17 973.8 968.4
00 15.10 ЮВ 8
{9}
10 км сильный позёмок {снег, метель} 10/8 600 м
[Sc Ac As]
-7.1 -10.8 75 -16 -16 966.9 961.5 -10.2 2 42
06 15.10 ЮВ 11
{12}
2000 м слабый снег {метель} 10/10 600 м
[Sc]
-4.2 -6.7 83 -14 -14 960.5 955.2
12 15.10 ЮВ 11
{13}
4000 м метель {снег} 10/6 600 м
[Sc Ac As]
-4.1 -7.4 78 -14 -14 958.9 953.6 -3.3 1
18 15.10 ЮВ 11
{13}
1000 м сильная метель {снег} 10/10 600 м
[Sc]
-4.1 -6.1 86 -14 -14 959.1 953.8
00 16.10 В 12
{13}
500 м метель {снег} ?/? -3.4 -5.3 87 -13 -13 964.1 958.8 -4.3 7 42
06 16.10 В 13
{15}
200 м метель ?/? -3.9 -4.9 93 -14 -14 967.7 962.4

 

Местоположение метеостанции Mirnyj (Антарктида): широта -66.55 долгота 93.02 высота над уровнем моря 39 м.

В архиве по умолчанию представлена погода в Mirnyj за последнюю неделю. Архивные данные за месяц целиком и за предыдущие месяцы, начиная с января 2011 года, Вы можете получить, выбрав интересующий диапазон дат из раскрывающегося списка и нажав кнопку "Ввод!".


*Определитесь, кто Вы:
робот инопланетянин человек

Внимание! Время в таблицах - всемирное. Для получения местного времени необходимо прибавить поправку, которая в Mirnyj равна 0 ч.

Смотрите также архив погоды в соседних городах и на ближайших метеорологических станциях:

Погода в Oazic Bangera (Антарктида) (345 км)
Погода в Davis (Whoop Whoop) (Антарктида) (639 км)
Погода в Casey Snyder Rocks (Антарктида) (650 км)
Погода в Davis (Антарктида) (676 км)
Погода в Progress (Антарктида) (759 км)
Погода в Zhongshan (Антарктида) (759 км)
Погода в Bharati (Антарктида) (767 км)
Погода в Casey (Антарктида) (776 км)
Погода в Casey Skiway South (Антарктида) (788 км)
Погода в Casey (Peterson air) (Антарктида) (800 км)

Пояснения к столбцам:

Ветер - указаны скорость ветра в м/с - средняя за 10 мин, порывы в срок и между сроками (в фигурных скобках) и направление, откуда дует ветер: С - северный, СВ - северо-восточный, В - восточный, ЮВ - юго-восточный, Ю - южный, ЮЗ - юго-западный, З - западный, СЗ - северо-западный.
Видимость - горизонтальная дальность видимости в метрах или километрах. При видимости от 1 до 10 км при отсутствии осадков обычно наблюдается дымка, при ухудшении видимости до 1 км и менее - туман. В сухую погоду видимость может ухудшаться дымом, пылью или мглою.
Явления - указаны атмосферные явления, наблюдавшиеся в срок или в последний час перед сроком; фигурными скобками обозначены явления, наблюдавшиеся между сроками (за 1-3 часа до срока); квадратными скобками обозначены град или гололедные отложения с указанием их диаметра в мм.
Облачность - указаны через наклонную черту общая и нижняя облачность в баллах и высота нижней границы облаков в метрах; квадратными скобками обозначены формы облаков: Ci - перистые, Cs - перисто-слоистые, Cc - перисто-кучевые, Ac - высококучевые, As - высокослоистые, Sc - слоисто-кучевые, Ns - слоисто-дождевые, Cu - кучевые, Cb - кучево-дождевые. Подробнее классификацию облаков см. в Атласе облаков (PDF).
T - Температура воздуха - температура, измеренная на высоте 2 м над землей.
Td - Температура точки росы - температура, при понижении до которой содержащийся в воздухе водяной пар достигнет насыщения.
f - Относительная влажность воздуха - влажноcть воздуха, измеренная на высоте 2 м над землей.
Te - Эффективная температура - температура, которую ощущает одетый по сезону человек в тени. Характеристика душности погоды. При расчете учитывается влияние влажности воздуха и скорости ветра на теплоощущения человека.
Tes - Эффективная температура на солнце - температура, которую ощущает человек, с поправкой на солнечный нагрев. Характеристика знойности погоды. Зависит от высоты солнца над горизонтом, облачности и скорости ветра. Ночью, в пасмурную погоду, а также при ветре 12 м/с и более поправка равна нулю.
P - Атмосферное давление - приведенное к уровню моря атмосферное давление.
Po - Атмосферное давление - измеренное на уровне метеостанции атмосферное давление.
Tmin - Минимальная температура - минимум температуры воздуха на высоте 2 м над землей.
Tmax - Максимальная температура - максимум температуры воздуха на высоте 2 м над землей.
R - Количество осадков - Количество выпавших осадков за период времени, мм. При наведении курсора мыши на число - период времени, за который выпало указанное количество осадков.
R24 - Количество осадков - Количество выпавших осадков за 24 часа, мм.
S - Снежный покров - Высота снежного покрова, см. При наведении курсора мыши на число - состояние снежного покрова и степень покрытия местности в баллах.